HULIANGWANG DIGUI-07

Last updated on Thu Jan 16 2025 00:02:04 GMT+0000 (Coordinated Universal Time)

1 62329U 24240G 25015.53984457 .00000079 00000+0 11713-3 0 9993 2 62329 86.4987 158.3976 0010810 212.8132 147.2341 13.40431552 4031
UTC large
Height (km)
Speed (km/s)
/
Latitude / Longitude
Inclination (degrees)
Orbital Period (minutes)
Azimuth
Elevation
Range (km)
Doppler Factor

Next 0 passes for location: London (51.5072 / 0.1276)

Sorry there are no passes over London.